INTELSAT 33E DEB, 64405

Orbit data source: Space-Track

INTELSAT 33E DEB, 64405 is space debris in GEO originally from a launch on Wed, 24 Aug 2016 UTC launched from the French Guiana (FRGUI). Debris objects in space refer to the collection of defunct objects orbiting the Earth. Examples of debris include non-operational satellites, rocket bodies, and fragments generated from explosions, collisions, or faulty payload assembly.

Loading next visibility...
Identifier
64405, 2016-053AK
Orbit
GEO
Country
Flag of USUS / ITSO
Related business
Manufacturer
Boeing/ES
Mission
Spacecraft
Bus & Motor
Unknown
Mass
Unknown
Launch date (UTC)
2016-08-24 (10 years ago)
Launch vehicle
Unknown
Launch site
French Guiana (FRGUI)
Object type
Payload
Rocket body
Debris
Shape & HBR
Unknown shape, 1.1 m
Radar Cross Section
RCS unknown

Expand to show TLE details & history
Last TLE update: 2 days ago

TLE from 2 days ago
0 INTELSAT 33E DEB
1 64405U 16053AK  26256.44008422 -.00000236  00000-0  00000+0 0  9990
2 64405   1.9501  90.3321 0080731  32.2185 329.0149  0.99504465  6786
Epoch: 2026-09-13T10:33Z
TLE epoch observation values (Epoch: 2026-09-13T10:33:43.276Z)
Latitude
-0°
Longitude
-59.79024°
Altitude
35,711.191 km
Speed
3.088 km/s
True Right ascension
06h 04m 17s
True Declination
0° 00' 00"
Sunlit
Object was in daylight at epoch
Visualization orbit readout
Latitude
Unknown
Longitude
Unknown
Altitude
Unknown
Speed
Unknown
Apparent Right ascension
Unknown
Apparent Declination
Unknown
Sunlit
N/A
Visualization observer readout
Local Sidereal Time
01:45:52
Azimuth
Unknown
Elevation
Unknown
Doppler factor
Unknown
Orbital elements
Apogee altitude
36,346.304 km
Perigee altitude
35,661.991 km
Semi-major axis
42,382.284 km
Eccentricity
0.00807
Inclination
1.9501°
RAAN
90.3321°
Arg. of periapsis
32.2185°
True anomaly
328.53449°
Mean anomaly
329.0149°
Eccentric anomaly
328.77511°
Mean motion
0.24875 °/min
Orbital period
1,447.22 mins
BSTAR
0
Loading maneuver chart data...
Computing Atmospheric mass density...
Loading historical data...
Loading historical data...
Loading historical data...
Loading historical data...
Loading historical data...
Loading historical data...
Loading historical data...

Documentation

Showing up to 5 results
|